Reidsville, NC

4:28 AM EDT on May 22, 2018 (GMT -0400)
Reidsville

Weather History for KSIF - August, 2013

Change the Weather History Date:

Sunday, August 4, 2013

  Actual Average (KGSO) Record (KGSO)
Temperature  
Mean Temperature 74 °F -  
Max Temperature 83 °F 87 °F 98 °F (1987)
Min Temperature 66 °F 68 °F 54 °F (1985)
Cooling Degree Days 10    
Growing Degree Days 24 (Base 50)    
Moisture  
Dew Point 66 °F    
Average Humidity 77    
Maximum Humidity 99    
Minimum Humidity 45    
Precipitation  
Precipitation 0.03 in - - ()
Sea Level Pressure  
Sea Level Pressure 30.00 in    
Wind  
Wind Speed 1 mph (NNE)    
Max Wind Speed 8 mph    
Max Gust Speed -    
Visibility 8 miles    
Events Rain    
Averages and records for this station are not official NWS values.
T = Trace of Precipitation, MM = Missing Value Source: NWS Daily Summary

Daily Weather History Graph

Daily Weather History Graph

Search for Another Location

Airport or City:

Astronomy

Aug. 04, 2013 Rise Set
Actual Time 6:28 AM EDT 8:21 PM EDT
Civil Twilight 6:00 AM EDT 8:50 PM EDT
Nautical Twilight 5:25 AM EDT 9:24 PM EDT
Astronomical Twilight 4:49 AM EDT 10:00 PM EDT
Moon 4:28 AM EDT (8/4) 6:44 PM EDT (8/4)
Length of Visible Light 14h 49m
Length of Day
13h 53m
Waning Crescent, 5% of the Moon is Illuminated
Aug 4
Waning Crescent
Aug 6
New
Aug 14
First Quarter
Aug 20
Full
Aug 28
Last Quarter

Hourly Weather History & Observations

Time (EDT) Temp. Heat Index Dew Point Humidity Pressure Visibility Wind Dir Wind Speed Gust Speed Precip Events Conditions
12:15 AM 69.3 °F - 68.9 °F 99% 29.97 in 4.0 mi Calm Calm - N/A   Scattered Clouds
12:35 AM 69.3 °F - 69.1 °F 99% 29.97 in 3.0 mi Calm Calm - N/A   Scattered Clouds
12:55 AM 69.3 °F - 68.9 °F 99% 29.97 in 4.0 mi Calm Calm - N/A   Scattered Clouds
1:15 AM 70.2 °F - 69.8 °F 99% 29.97 in 4.0 mi Calm Calm - N/A   Mostly Cloudy
1:35 AM 70.7 °F - 70.3 °F 99% 29.97 in 3.0 mi Calm Calm - N/A   Overcast
1:55 AM 72.3 °F - 72.0 °F 99% 29.97 in 5.0 mi Calm Calm - N/A   Overcast
2:15 AM 71.8 °F - 71.6 °F 99% 29.96 in 7.0 mi Calm Calm - N/A   Overcast
2:35 AM 72.5 °F - 69.6 °F 91% 29.96 in 7.0 mi Calm Calm - N/A Rain Light Rain
2:55 AM 71.1 °F - 69.6 °F 95% 29.96 in 7.0 mi Calm Calm - N/A Rain Light Rain
3:15 AM 71.1 °F - 69.4 °F 95% 29.96 in 7.0 mi Calm Calm - N/A Rain Rain
3:35 AM 71.2 °F - 69.6 °F 95% 29.96 in 7.0 mi Calm Calm - 0.01 in Rain Rain
3:55 AM 71.1 °F - 69.8 °F 96% 29.96 in 5.0 mi Calm Calm - 0.02 in Rain Rain
4:15 AM 70.7 °F - 69.4 °F 96% 29.93 in 7.0 mi Calm Calm - N/A Rain Light Rain
4:35 AM 70.3 °F - 69.3 °F 96% 29.94 in 5.0 mi Calm Calm - N/A   Mostly Cloudy
4:55 AM 70.7 °F - 69.8 °F 97% 29.95 in 5.0 mi Calm Calm - N/A   Mostly Cloudy
5:15 AM 70.3 °F - 69.4 °F 97% 29.95 in 7.0 mi Calm Calm - N/A   Mostly Cloudy
5:35 AM 70.2 °F - 69.1 °F 96% 29.95 in 7.0 mi Calm Calm - N/A   Mostly Cloudy
5:55 AM 70.2 °F - 69.3 °F 97% 29.96 in 5.0 mi Calm Calm - N/A   Mostly Cloudy
6:15 AM 70.0 °F - 69.1 °F 97% 29.96 in 7.0 mi Calm Calm - 0.01 in   Scattered Clouds
6:35 AM 69.4 °F - 68.7 °F 98% 29.97 in 4.0 mi Calm Calm - 0.01 in   Clear
6:55 AM 69.6 °F - 68.9 °F 98% 29.98 in 5.0 mi Calm Calm - 0.01 in   Clear
7:15 AM 69.1 °F - 68.5 °F 98% 29.98 in 4.0 mi Calm Calm - N/A   Clear
7:35 AM 70.9 °F - 69.8 °F 96% 29.98 in 7.0 mi Calm Calm - N/A   Clear
7:55 AM 71.6 °F - 69.4 °F 93% 29.99 in 7.0 mi Calm Calm - N/A   Clear
8:15 AM 72.3 °F - 69.3 °F 90% 30.00 in 10.0 mi Calm Calm - N/A   Clear
8:35 AM 74.3 °F - 68.9 °F 83% 30.00 in 10.0 mi North 3.5 mph - N/A   Clear
8:55 AM 74.8 °F - 68.9 °F 82% 30.01 in 10.0 mi North 5.8 mph - N/A   Scattered Clouds
9:15 AM 75.7 °F - 68.9 °F 79% 30.01 in 10.0 mi NNE 3.5 mph - N/A   Clear
9:35 AM 76.5 °F - 68.7 °F 77% 30.02 in 10.0 mi NNE 4.6 mph - N/A   Clear
9:55 AM 76.3 °F - 67.8 °F 75% 30.02 in 10.0 mi North 6.9 mph - N/A   Clear
10:15 AM 77.9 °F - 68.0 °F 71% 30.02 in 10.0 mi North 6.9 mph - N/A   Scattered Clouds
10:35 AM 78.3 °F - 67.3 °F 69% 30.02 in 10.0 mi North 3.5 mph - N/A   Scattered Clouds
10:55 AM 78.8 °F - 65.8 °F 64% 30.03 in 10.0 mi NNE 5.8 mph - N/A   Scattered Clouds
11:15 AM 79.7 °F - 65.1 °F 61% 30.03 in 10.0 mi NNE 6.9 mph - N/A   Scattered Clouds
11:35 AM 80.2 °F 81.8 °F 63.9 °F 57% 30.03 in 10.0 mi NNE 5.8 mph - N/A   Mostly Cloudy
11:55 AM 80.2 °F 81.6 °F 63.1 °F 56% 30.03 in 10.0 mi NE 6.9 mph - N/A   Clear
12:15 PM 80.8 °F 81.9 °F 62.4 °F 53% 30.03 in 10.0 mi North 8.1 mph - N/A   Clear
12:35 PM 81.3 °F 82.2 °F 61.3 °F 51% 30.02 in 10.0 mi NNE 4.6 mph - N/A   Clear
12:55 PM 81.5 °F 82.4 °F 61.7 °F 51% 30.02 in 10.0 mi North 4.6 mph - N/A   Scattered Clouds
1:15 PM 81.7 °F 82.4 °F 61.2 °F 50% 30.02 in 10.0 mi North 3.5 mph - N/A   Mostly Cloudy
1:35 PM 80.6 °F 81.5 °F 60.8 °F 51% 30.01 in 10.0 mi North 3.5 mph - N/A   Mostly Cloudy
1:55 PM 82.8 °F 83.0 °F 60.1 °F 46% 30.01 in 10.0 mi North 5.8 mph - N/A   Scattered Clouds
2:15 PM 81.1 °F 81.9 °F 60.6 °F 50% 30.01 in 10.0 mi NNE 3.5 mph - N/A   Scattered Clouds
2:35 PM 81.0 °F 81.6 °F 59.9 °F 49% 30.01 in 10.0 mi North 3.5 mph - N/A   Mostly Cloudy
2:55 PM 82.4 °F 82.6 °F 59.9 °F 46% 30.00 in 10.0 mi NNW 3.5 mph - N/A   Mostly Cloudy
3:15 PM 81.0 °F 81.8 °F 61.3 °F 51% 30.00 in 10.0 mi Calm Calm - N/A   Mostly Cloudy
3:35 PM 82.4 °F 82.5 °F 59.2 °F 45% 29.99 in 10.0 mi Calm Calm - N/A   Scattered Clouds
3:55 PM 83.3 °F 83.7 °F 61.3 °F 47% 29.99 in 10.0 mi NNE 5.8 mph - N/A   Scattered Clouds
4:15 PM 83.7 °F 84.1 °F 61.5 °F 47% 29.99 in 10.0 mi NNE 5.8 mph - N/A   Clear
4:35 PM 83.1 °F 83.3 °F 60.6 °F 46% 29.99 in 10.0 mi Calm Calm - N/A   Scattered Clouds
4:55 PM 82.8 °F 83.1 °F 60.8 °F 47% 29.99 in 10.0 mi NNE 3.5 mph - N/A   Scattered Clouds
5:15 PM 82.9 °F 83.7 °F 61.7 °F 49% 29.99 in 10.0 mi NNE 3.5 mph - N/A   Clear
5:35 PM 82.8 °F 83.4 °F 61.5 °F 49% 29.99 in 10.0 mi Calm Calm - N/A   Clear
5:55 PM 82.0 °F 82.8 °F 61.9 °F 50% 30.00 in 10.0 mi Calm Calm - N/A   Scattered Clouds
6:15 PM 81.7 °F 82.7 °F 62.4 °F 52% 30.00 in 10.0 mi Calm Calm - N/A   Scattered Clouds
6:35 PM 81.5 °F 82.4 °F 61.7 °F 51% 30.00 in 10.0 mi Calm Calm - N/A   Scattered Clouds
6:55 PM 80.8 °F 82.1 °F 63.3 °F 55% 30.00 in 10.0 mi Calm Calm - N/A   Clear
7:15 PM 79.9 °F - 63.3 °F 57% 30.00 in 10.0 mi Calm Calm - N/A   Clear
7:35 PM 77.0 °F - 68.2 °F 74% 30.01 in 10.0 mi Calm Calm - N/A   Clear
7:55 PM 75.2 °F - 68.5 °F 80% 30.01 in 10.0 mi Calm Calm - N/A   Mostly Cloudy
8:15 PM 73.8 °F - 69.4 °F 86% 30.01 in 10.0 mi Calm Calm - N/A   Overcast
8:35 PM 71.2 °F - 68.4 °F 91% 30.01 in 10.0 mi Calm Calm - N/A   Scattered Clouds
8:55 PM 69.8 °F - 67.8 °F 93% 30.02 in 7.0 mi Calm Calm - N/A   Scattered Clouds
9:15 PM 68.4 °F - 66.7 °F 95% 30.03 in 7.0 mi Calm Calm - N/A   Scattered Clouds
9:35 PM 68.4 °F - 66.7 °F 95% 30.03 in 10.0 mi Calm Calm - N/A   Mostly Cloudy
9:55 PM 68.9 °F - 67.1 °F 94% 30.04 in 10.0 mi Calm Calm - N/A   Overcast
10:15 PM 68.4 °F - 67.1 °F 96% 30.05 in 7.0 mi Calm Calm - N/A   Mostly Cloudy
10:35 PM 68.2 °F - 67.1 °F 96% 30.05 in 7.0 mi Calm Calm - N/A   Overcast
10:55 PM 68.4 °F - 67.1 °F 96% 30.06 in 7.0 mi Calm Calm - N/A   Overcast
11:15 PM 68.0 °F - 66.6 °F 95% 30.06 in 7.0 mi Calm Calm - N/A   Overcast
11:35 PM 66.7 °F - 65.7 °F 96% 30.06 in 5.0 mi Calm Calm - N/A   Mostly Cloudy
11:55 PM 66.2 °F - 65.1 °F 96% 30.07 in 5.0 mi Calm Calm - N/A   Mostly Cloudy